Weather History for Grand Junction, CO

Change the Weather History Date:

Tuesday, October 15, 2013

  Actual Average Record
Temperature  
Mean Temperature 44 °F 54 °F  
Max Temperature 53 °F 67 °F 80 °F (1977)
Min Temperature 34 °F 40 °F 30 °F (1952)
Degree Days  
Heating Degree Days 21 12  
Month to date heating degree days 202 132  
Since 1 July heating degree days 284 206  
Cooling Degree Days 0 0  
Month to date cooling degree days 0 1  
Year to date cooling degree days 1269 1123  
Moisture  
Dew Point 33 °F    
Average Humidity 68    
Maximum Humidity 89    
Minimum Humidity 46    
Precipitation  
Precipitation T in 0.04 in 0.69 in (1937)
Month to date precipitation 0.93 0.55  
Year to date precipitation 9.99 7.59  
Snow  
Snow 0.00 in 0.00 in 0.00 in (2012)
Month to date snowfall 0.1 0.1  
Since 1 July snowfall 0.1 0.1  
Since 1 September snowfall 0.1 0.1  
Snow Depth 0.00 in    
Sea Level Pressure  
Sea Level Pressure 30.11 in    
Wind  
Wind Speed 5 mph (NNW)    
Max Wind Speed 16 mph    
Max Gust Speed 20 mph    
Visibility 10 miles    
Events      
T = Trace of Precipitation, MM = Missing Value Source: NWS Daily Summary

Daily Weather History Graph

Daily Weather History Graph

Search for Another Location

Airport:

Trip Planner

Search our weather history database for the weather conditions in past years. The results will help you decide how hot, cold, wet, or windy it might be!

Date:

Astronomy

Oct. 15, 2013 Rise Set
Actual Time 7:24 AM MDT 6:34 PM MDT
Civil Twilight 6:57 AM MDT 7:01 PM MDT
Nautical Twilight 6:26 AM MDT 7:32 PM MDT
Astronomical Twilight 5:55 AM MDT 8:03 PM MDT
Moon 4:40 PM MDT (10/15) 3:51 AM MDT (10/15)
Length of Visible Light 12h 04m
Length of Day
11h 10m
Waxing Gibbous, 88% of the Moon is Illuminated
Oct 15
Waxing Gibbous
Oct 18
Full
Oct 26
Last Quarter
Nov 3
New
Nov 9
First Quarter

Hourly Weather History & Observations

Time (MDT) Temp. Windchill Dew Point Humidity Pressure Visibility Wind Dir Wind Speed Gust Speed Precip Events Conditions
12:53 AM 45.0 °F - 36.0 °F 71% 30.10 in 10.0 mi Calm Calm - N/A   Mostly Cloudy
1:53 AM 42.1 °F - 39.9 °F 92% 30.12 in 10.0 mi Calm Calm - N/A   Mostly Cloudy
2:53 AM 42.1 °F 37.7 °F 35.1 °F 76% 30.12 in 10.0 mi NE 6.9 mph - N/A   Mostly Cloudy
3:53 AM 44.1 °F 39.5 °F 34.0 °F 68% 30.10 in 10.0 mi NNE 8.1 mph - N/A   Mostly Cloudy
4:53 AM 43.0 °F 40.3 °F 32.0 °F 65% 30.11 in 10.0 mi Variable 4.6 mph - N/A   Overcast
5:53 AM 42.1 °F 37.1 °F 32.0 °F 67% 30.12 in 10.0 mi North 8.1 mph - N/A   Overcast
6:53 AM 42.1 °F 37.7 °F 32.0 °F 67% 30.13 in 10.0 mi North 6.9 mph - N/A   Mostly Cloudy
7:53 AM 42.1 °F - 30.9 °F 65% 30.12 in 10.0 mi Calm Calm - N/A   Scattered Clouds
8:53 AM 39.9 °F 37.8 °F 35.1 °F 83% 30.15 in 10.0 mi SSW 3.5 mph - N/A   Scattered Clouds
9:53 AM 46.0 °F 44.8 °F 32.0 °F 58% 30.14 in 10.0 mi Variable 3.5 mph - N/A   Scattered Clouds
10:53 AM 46.9 °F - 32.0 °F 56% 30.13 in 10.0 mi Calm Calm - N/A   Mostly Cloudy
11:53 AM 48.9 °F - 34.0 °F 56% 30.12 in 10.0 mi NE 10.4 mph - N/A   Mostly Cloudy
12:53 PM 50.0 °F - 32.0 °F 50% 30.09 in 10.0 mi SE 5.8 mph - N/A   Mostly Cloudy
1:53 PM 51.1 °F - 32.0 °F 48% 30.06 in 10.0 mi North 8.1 mph - N/A   Mostly Cloudy
2:53 PM 50.0 °F - 30.9 °F 48% 30.06 in 10.0 mi Calm Calm - N/A   Overcast
3:53 PM 48.9 °F - 32.0 °F 52% 30.06 in 10.0 mi West 4.6 mph 16.1 mph N/A   Mostly Cloudy
4:53 PM 46.0 °F 39.6 °F 37.9 °F 73% 30.07 in 10.0 mi SW 15.0 mph - 0.00 in   Mostly Cloudy
5:53 PM 44.1 °F - 37.9 °F 79% 30.09 in 10.0 mi Calm Calm - N/A   Clear
6:53 PM 42.1 °F 38.4 °F 37.9 °F 85% 30.11 in 10.0 mi North 5.8 mph - N/A   Mostly Cloudy
7:53 PM 42.1 °F 38.4 °F 30.0 °F 62% 30.12 in 10.0 mi North 5.8 mph - N/A   Clear
8:53 PM 42.1 °F 39.2 °F 30.0 °F 62% 30.13 in 10.0 mi West 4.6 mph - N/A   Mostly Cloudy
9:53 PM 37.0 °F 32.4 °F 32.0 °F 82% 30.13 in 10.0 mi NW 5.8 mph - N/A   Clear
10:53 PM 36.0 °F - 30.9 °F 82% 30.12 in 10.0 mi Calm Calm - N/A   Clear
11:53 PM 36.0 °F 32.1 °F 28.9 °F 76% 30.13 in 10.0 mi NNW 4.6 mph - N/A   Partly Cloudy